User: anonymous   Login
Location: Unspecified
(0.0000°N, 0.0000°E)
Time: 18:23:24
(UTC+01:00)
Language:

Atlas Centaur 2 - Orbit

View from above orbital plane
View from above orbital plane
View from above satellite
View from above satellite

Ground track
Ground track

The orbit data is extracted from the following two-line orbital elements,

1 00694U 63047A   14329.20220738  .00001211  00000-0  14588-3 0  6476
2 00694 030.3607 263.6476 0596195 208.0445 299.1665 14.00110263551469
Epoch (UTC): 25 November 2014 04:51:10
Eccentricity: 0.0596195
inclination: 30.3607°
perigee height: 460 km
apogee height: 1327 km
right ascension of ascending node: 263.6476°
argument of perigee: 208.0445°
revolutions per day: 14.00110263
mean anomaly at epoch: 299.1665°
orbit number at epoch: 55146

The dashed part of the orbit path shows where the satellite is in the earth's shadow,  

DLR